[[{"header":{"parameterUnit":"m.s-1","parameterCategory":1,"la1":30.2991,"la2":30.254,"lo1":-89.0895,"lo2":-89.0444,"dy":0.0017,"dx":0.0017,"nx":28,"ny":28,"refTime":"2025-03-11T21:00:00:Z","depth":0,"parameterNumber":2,"parameterNumberName":"U-component_of_WINDS"},"data":[0,0,0,0,0,0,0,0,0,0,0,0,0,0,0,0,0,0,0,0,0,0,0,0,0,0,0,0,0,0,0,0,0,0,0,0,0,0,0,0,0,0,0,0,0,0,0,0,0,0,0,0,0,0,0,0,0,0,0.6849,0.6849,0,0.6848,0.6848,0.6848,0.6882,0.6883,0.6884,0.6885,0.6885,0.6884,0.6883,0,0,0,0,0,0,0,0,0,0,0,0,0,0.6885,0.6884,0.6849,0.6849,0.6849,0.6848,0.6848,0.6848,0.6882,0.6883,0.6884,0.6885,0.6885,0.6884,0.6883,0,0,0,0,0,0,0,0,0,0,0,0,0,0.6875,0.6884,0.6849,0.6866,0.6867,0.6848,0.6848,0.6848,0.6882,0.6883,0.6884,0.6886,0.6886,0.6884,0.6883,0.6848,0,0,0.6879,0.6879,0,0,0,0,0,0,0,0,0.6876,0.6874,0.6863,0.6865,0.6866,0.6867,0.6861,0.6848,0.6881,0.6876,0.6885,0.6886,0.6878,0.6877,0.6874,0.6848,0.6848,0.6879,0.6878,0.6878,0.6877,0,0,0,0,0,0,0,0.6876,0.6874,0.6849,0.6863,0.6865,0.6875,0.6875,0.6858,0.6869,0.6877,0.6879,0.6879,0.6879,0.6875,0.6874,0.6848,0.6879,0.6878,0.6877,0.6877,0.6797,0.6795,0,0,0,0,0,0,0.6874,0.6874,0.6849,0.6849,0.6874,0.6873,0.6873,0.6865,0.687,0.6872,0.6877,0.688,0.6877,0.6876,0.6874,0.6836,0.6878,0.6877,0.6876,0.6798,0.6796,0.6795,0,0,0,0,0,0,0.6875,0.6872,0.6849,0.6862,0.686,0.6871,0.6862,0.6864,0.6861,0.687,0.6873,0.6871,0.6878,0.6876,0.6855,0.6836,0.6876,0.6875,0.68,0.6797,0.6796,0.6757,0,0,0,0,0,0,0.6876,0.6872,0.6857,0.6862,0.6859,0.6828,0.686,0.6863,0.6858,0.6862,0.6865,0.6867,0.6879,0.6857,0.6854,0.6835,0.6874,0.6801,0.6799,0.6796,0.676,0.6754,0.6749,0,0,0,0,0,0.6877,0.6846,0.6856,0.6853,0.6841,0.6827,0.6826,0.6839,0.6856,0.6843,0.685,0.6867,0.6839,0.6854,0.6851,0.6832,0.6803,0.6799,0.6796,0.6763,0.6755,0.6749,0,0,0,0,0,0,0.6839,0.6847,0.6858,0.6827,0.6826,0.6833,0.6816,0.683,0.6824,0.6828,0.6846,0.6846,0.6823,0.6825,0.6842,0.68,0.6824,0.682,0.6799,0.6792,0.6787,0.6787,0.6873,0,0,0,0,0,0.6827,0.6813,0.6821,0.6794,0.6793,0.6804,0.6798,0.6809,0.6809,0.6809,0.6813,0.6813,0.6805,0.6798,0.6791,0.6761,0.6763,0.6746,0.6741,0.6736,0.6733,0.672,0.6713,0.6785,0.6785,0.6785,0,0,0.6802,0.6804,0.6795,0.6786,0.6786,0.6774,0.6803,0.6788,0.678,0.6806,0.6787,0.6791,0.6792,0.6767,0.6756,0.6768,0.6714,0.6732,0.6728,0.6727,0.6716,0.6709,0.6703,0.6783,0.6783,0.6783,0,0,0.675,0.675,0.6728,0.6728,0.6729,0.6737,0.6732,0.6737,0.6741,0.6722,0.6742,0.6733,0.6717,0.6718,0.6716,0.6668,0.6685,0.6665,0.6636,0.6623,0.6618,0.6613,0.6598,0.6592,0.6662,0.6662,0.6662,0,0.6719,0.67,0.6715,0.6699,0.6696,0.672,0.67,0.67,0.6697,0.6695,0.6709,0.6692,0.6694,0.6671,0.6659,0.6656,0.6653,0.6665,0.6617,0.6612,0.6608,0.6594,0.6588,0.666,0.666,0.666,0.666,0,0.6663,0.665,0.6632,0.6631,0.6626,0.6607,0.6621,0.6615,0.6627,0.6634,0.6617,0.662,0.6615,0.6611,0.6622,0.659,0.6598,0.6614,0.6638,0.6599,0.6586,0.6581,0.6657,0.6657,0.6658,0.6659,0,0,0.6585,0.6595,0.6588,0.6589,0.6593,0.6584,0.6568,0.6563,0.6558,0.6557,0.6545,0.6533,0.6549,0.6547,0.6559,0.6547,0.6512,0.6565,0.6566,0.6557,0.6481,0.6469,0.6463,0.6523,0.6522,0.6522,0.6481,0,0.6537,0.651,0.6525,0.6496,0.6486,0.651,0.6497,0.6499,0.6506,0.65,0.6508,0.65,0.652,0.652,0.651,0.6519,0.6498,0.6522,0.6515,0.6514,0.6515,0.6456,0.6443,0.6405,0.6476,0.6475,0.6475,0,0.6476,0.6473,0.6444,0.6453,0.6449,0.6436,0.6435,0.6428,0.6432,0.6438,0.6437,0.6453,0.644,0.6464,0.6448,0.6464,0.6463,0.6467,0.6466,0.6466,0.6493,0.6456,0.6393,0.6387,0.6467,0.6467,0.6468,0,0.6425,0.6414,0.6396,0.6396,0.6405,0.6396,0.64,0.6405,0.6402,0.6401,0.64,0.6397,0.6396,0.6395,0.641,0.6426,0.6393,0.6418,0.64,0.6399,0.6392,0.6393,0.6329,0.6389,0.6389,0.6389,0.6389,0,0.637,0.6352,0.6374,0.6362,0.6344,0.6362,0.6343,0.6349,0.6354,0.6346,0.6367,0.6359,0.6379,0.6374,0.6386,0.6373,0.6371,0.6378,0.6381,0.6376,0.6376,0.6376,0.638,0.6387,0.6388,0.6388,0.6388,0,0.631,0.6323,0.6306,0.6317,0.6319,0.6305,0.6315,0.6306,0.6316,0.6306,0.6305,0.632,0.6315,0.6331,0.6328,0.6336,0.6317,0.6324,0.6316,0.6318,0.6301,0.6303,0.6235,0.6229,0.6291,0.6291,0.629,0,0.6274,0.6261,0.6271,0.6268,0.627,0.6263,0.6261,0.628,0.6277,0.6282,0.6273,0.627,0.6269,0.6261,0.6273,0.6272,0.628,0.6257,0.628,0.6277,0.6282,0.6283,0.6283,0.6252,0.6251,0.6251,0.625,0,0.621,0.6219,0.6214,0.6214,0.6211,0.6211,0.6213,0.6209,0.6229,0.6225,0.6221,0.622,0.6219,0.6217,0.6219,0.6224,0.6241,0.6243,0.6239,0.6234,0.6231,0.6235,0.6304,0.6244,0.6245,0.6245,0.6246,0.6246,0.6162,0.6153,0.616,0.6156,0.6159,0.6161,0.6154,0.6164,0.6161,0.6161,0.6173,0.6167,0.6174,0.6179,0.6183,0.6179,0.619,0.6184,0.6183,0.6181,0.6179,0.6231,0.6179,0.618,0.618,0.618,0.618,0,0.6102,0.6108,0.6104,0.6106,0.6104,0.6121,0.6124,0.6121,0.6116,0.6121,0.612,0.6117,0.6116,0.6128,0.6129,0.6124,0.6132,0.6124,0.6125,0.6127,0.6168,0.6172,0.6117,0.6117,0.6117,0.6118,0.6118,0.6118,0.6069,0.6055,0.6065,0.6054,0.6061,0.6055,0.6056,0.6059,0.6064,0.6059,0.6058,0.6067,0.6076,0.6078,0.6078,0.6082,0.6082,0.6071,0.6078,0.6117,0.6123,0.6129,0.6133,0.6071,0.6071,0.6037,0.6037,0.6036]},{"header":{"parameterUnit":"m.s-1","parameterCategory":1,"la1":30.2991,"la2":30.254,"lo1":-89.0895,"lo2":-89.0444,"dy":0.0017,"dx":0.0017,"nx":28,"ny":28,"refTime":"2025-03-11T21:00:00:Z","depth":0,"parameterNumber":3,"parameterNumberName":"V-component_of_WINDS"},"data":[0,0,0,0,0,0,0,0,0,0,0,0,0,0,0,0,0,0,0,0,0,0,0,0,0,0,0,0,0,0,0,0,0,0,0,0,0,0,0,0,0,0,0,0,0,0,0,0,0,0,0,0,0,0,0,0,0,0,3.3954,3.3956,0,3.4075,3.4076,3.4077,3.4162,3.4163,3.4163,3.4164,3.4283,3.4286,3.4288,0,0,0,0,0,0,0,0,0,0,0,0,0,3.3795,3.3797,3.3954,3.3956,3.3957,3.4074,3.4076,3.4078,3.4162,3.4163,3.4163,3.4164,3.4283,3.4286,3.4289,0,0,0,0,0,0,0,0,0,0,0,0,0,3.3884,3.3798,3.3954,3.4013,3.402,3.4074,3.4076,3.4078,3.4162,3.4163,3.4164,3.4165,3.4282,3.4285,3.4289,3.4293,0,0,3.4301,3.4303,0,0,0,0,0,0,0,0,3.3879,3.389,3.4003,3.4009,3.4017,3.4104,3.4064,3.415,3.4161,3.4108,3.4164,3.4165,3.4223,3.4232,3.4252,3.4298,3.4304,3.4301,3.4304,3.4305,3.4306,0,0,0,0,0,0,0,3.3873,3.3885,3.4002,3.4005,3.4013,3.4033,3.4047,3.4081,3.4158,3.4112,3.4119,3.4132,3.4227,3.4248,3.4255,3.4305,3.4301,3.4305,3.4307,3.4308,3.4364,3.4363,0,0,0,0,0,0,3.3858,3.388,3.3998,3.4005,3.3949,3.4035,3.4051,3.4075,3.4158,3.4172,3.4131,3.4136,3.4241,3.4251,3.426,3.4272,3.4305,3.4309,3.4311,3.4364,3.4363,3.4362,0,0,0,0,0,0,3.3854,3.3868,3.3993,3.3944,3.3962,3.4037,3.4064,3.4077,3.4098,3.4172,3.4186,3.4139,3.4242,3.4254,3.4285,3.4277,3.4311,3.4314,3.4365,3.4364,3.4363,3.4293,0,0,0,0,0,0,3.3849,3.3866,3.3868,3.3944,3.3964,3.4016,3.4063,3.4079,3.4105,3.4112,3.4183,3.4196,3.4244,3.4279,3.4289,3.4283,3.4317,3.4366,3.4365,3.4363,3.4297,3.429,3.4284,0,0,0,0,0,3.3843,3.3842,3.3868,3.3882,3.3969,3.4016,3.4027,3.4084,3.4104,3.4107,3.4155,3.4193,3.4276,3.4281,3.4293,3.4288,3.4367,3.4365,3.4363,3.43,3.4291,3.4284,0,0,0,0,0,0,3.3762,3.3853,3.3883,3.3906,3.3953,3.403,3.4035,3.4073,3.4113,3.4118,3.4185,3.4201,3.4225,3.4259,3.4263,3.4297,3.4326,3.4327,3.4274,3.4267,3.426,3.4252,3.432,0,0,0,0,0,3.3747,3.3778,3.3856,3.3869,3.3892,3.3959,3.3982,3.4022,3.4072,3.4091,3.4141,3.4188,3.4225,3.4247,3.4285,3.4302,3.432,3.4305,3.4298,3.4293,3.4293,3.4306,3.4301,3.4356,3.4356,3.4356,0,0,3.3716,3.377,3.3785,3.3855,3.3895,3.3926,3.3975,3.4005,3.4028,3.4096,3.4129,3.4167,3.4223,3.4247,3.4261,3.4277,3.4281,3.429,3.4285,3.4288,3.4304,3.4299,3.4294,3.4355,3.4355,3.4355,0,0,3.3675,3.3719,3.3736,3.3777,3.3839,3.3884,3.3888,3.396,3.3989,3.4023,3.4075,3.4103,3.4164,3.4204,3.4231,3.4208,3.4245,3.4218,3.4185,3.4198,3.4193,3.419,3.4183,3.418,3.4217,3.4217,3.4217,0,3.3629,3.3678,3.374,3.3768,3.3797,3.3862,3.388,3.3916,3.3986,3.4004,3.4022,3.4103,3.4145,3.418,3.4175,3.4195,3.4202,3.4211,3.4189,3.4186,3.4184,3.4179,3.4176,3.4214,3.4214,3.4214,3.4215,0,3.3618,3.3652,3.3658,3.3727,3.3757,3.3779,3.3845,3.3868,3.3905,3.3949,3.3983,3.4037,3.4088,3.4099,3.4135,3.414,3.4149,3.4177,3.4208,3.4174,3.417,3.4168,3.4209,3.421,3.4211,3.4212,0,0,3.3529,3.3634,3.3635,3.3668,3.3742,3.3769,3.3794,3.3846,3.3865,3.3911,3.3935,3.3987,3.4015,3.4046,3.4087,3.4098,3.4078,3.4125,3.4128,3.4116,3.409,3.4069,3.4065,3.4103,3.4103,3.4103,3.4085,0,3.3501,3.3553,3.361,3.3641,3.3674,3.3736,3.3759,3.3807,3.3848,3.3881,3.3927,3.3963,3.3996,3.4016,3.4029,3.4078,3.4074,3.408,3.4127,3.4128,3.4112,3.4063,3.4041,3.4022,3.4084,3.4084,3.4084,0,3.3475,3.3521,3.3556,3.363,3.3645,3.3665,3.3718,3.3749,3.3804,3.3834,3.387,3.3915,3.3945,3.3972,3.4016,3.4018,3.4041,3.4068,3.4068,3.4076,3.4104,3.407,3.4017,3.4014,3.4081,3.4082,3.4082,0,3.3409,3.3479,3.351,3.3536,3.3622,3.3635,3.3671,3.3727,3.3755,3.3801,3.382,3.3868,3.3894,3.3931,3.3987,3.4001,3.4025,3.4056,3.4051,3.405,3.4054,3.4053,3.4004,3.4066,3.4066,3.4066,3.4066,0,3.3372,3.3391,3.3482,3.3501,3.3525,3.359,3.3612,3.3654,3.3704,3.3732,3.3788,3.3813,3.3886,3.3919,3.3963,3.3994,3.4005,3.403,3.4042,3.4026,3.4023,3.4042,3.4046,3.4066,3.4066,3.4066,3.4066,0,3.3302,3.3363,3.3401,3.348,3.3501,3.3515,3.3583,3.3604,3.3649,3.3684,3.3696,3.3767,3.381,3.387,3.393,3.396,3.3985,3.4003,3.3967,3.3974,3.3966,3.3967,3.3929,3.3929,3.3989,3.3988,3.3987,0,3.3275,3.3292,3.3374,3.3398,3.3433,3.347,3.35,3.3565,3.3593,3.3659,3.3672,3.372,3.3762,3.3827,3.3884,3.3931,3.3951,3.3935,3.3958,3.3943,3.3953,3.3952,3.3955,3.3929,3.3928,3.3927,3.3927,0,3.3222,3.3252,3.3293,3.3346,3.338,3.3424,3.347,3.3486,3.3562,3.3591,3.3637,3.3669,3.3732,3.3779,3.3834,3.3871,3.3912,3.3919,3.3921,3.3905,3.3885,3.3898,3.3953,3.392,3.392,3.3921,3.3921,3.3922,3.3174,3.3193,3.3254,3.3299,3.3341,3.3384,3.3408,3.3458,3.3498,3.3556,3.3591,3.3636,3.3693,3.3771,3.3806,3.3842,3.3858,3.386,3.3861,3.3861,3.3856,3.3878,3.3852,3.3852,3.3852,3.3853,3.3853,0,3.3125,3.3168,3.3208,3.3273,3.3309,3.3345,3.3399,3.3426,3.3465,3.3515,3.3556,3.3609,3.3656,3.3717,3.3767,3.3784,3.3804,3.3795,3.3795,3.3804,3.3838,3.3832,3.3779,3.3779,3.3779,3.3779,3.3779,3.3779,3.3104,3.3138,3.3176,3.3232,3.3275,3.3321,3.3349,3.3389,3.343,3.3487,3.3527,3.3567,3.3622,3.3678,3.3722,3.3739,3.3755,3.3741,3.3763,3.3794,3.3801,3.3807,3.3803,3.3744,3.3744,3.3727,3.3727,3.3727]}]]